Regional Weather Roundup
Issued by NWS

Home | Current Version | Previous Version | Graphics & Text | Print | Product List | Glossary On
Versions: 1 2 3 4 5 6 7 8 9 10 11 12 13 14 15 16 17 18 19 20 21 22 23 24 25 26 27 28 29 30 31 32 33 34 35 36 37 38 39 40 41 42 43 44 45 46 47 48 49 50
000
ASUS43 KLOT 270708
RWRIL

ILLINOIS REGIONAL WEATHER ROUNDUP
NATIONAL WEATHER SERVICE CHICAGO/ROMEOVILLE IL
100 AM CST MON FEB 27 2017

NOTE: "FAIR" INDICATES FEW OR NO CLOUDS BELOW 12,000 FEET WITH NO
SIGNIFICANT WEATHER AND/OR OBSTRUCTIONS TO VISIBILITY.

* THESE STATIONS ARE NOT UNDER NWS QUALITY CONTROL. THEY ALSO MAY NOT
  REPORT WEATHER SUCH AS PRECIPITATION OR FOG.

ILZ001-002-007-009-015-016-024-270800-
NORTHWEST ILLINOIS

CITY           SKY/WX    TMP DP  RH WIND       PRES   REMARKS
MOLINE         PTCLDY    31  28  89 CALM      30.06S
STERLING*      CLOUDY    34  32  92 SW3       30.08R
$$

ILZ003-004-008-010-011-017-018-270800-
NORTH CENTRAL ILLINOIS

CITY           SKY/WX    TMP DP  RH WIND       PRES   REMARKS
ROCKFORD       PTCLDY    29  25  85 S3        30.08S
FREEPORT*      CLOUDY    28  24  84 CALM      30.08S
ROCHELLE*      CLOUDY    32  31  97 CALM      30.07S
DE KALB*       MOCLDY    35  32  88 SW6       30.07S WCI  30
PERU*          CLEAR     35  24  65 SW12      30.10R WCI  27
$$

ILZ005-006-012>014-019>023-270800-
NORTHEAST ILLINOIS

CITY           SKY/WX    TMP DP  RH WIND       PRES   REMARKS
CHICAGO-OHARE  PTCLDY    36  25  64 SW3       30.07R
CHICAGO-MIDWAY PTCLDY    37  24  59 SW7       30.08R WCI  32
AURORA         CLEAR     31  26  82 W3        30.08R
LANSING*       CLEAR     32  27  81 SW6       30.11R WCI  26
JOLIET*        CLEAR     38  27  64 SW5       30.10R WCI  34
WAUKEGAN       PTCLDY    34  30  85 W3        30.07R
DUPAGE AIRPORT CLEAR     31  24  75 SW6       30.07R WCI  25
KANKAKEE*      PTCLDY    30  24  77 CALM      30.12S
WHEELING       PTCLDY    36  26  67 SW6       30.09R WCI  31
MORRIS*        CLEAR     34  25  70 SW6       30.08S WCI  29
ROMEOVILLE*    CLEAR     35  29  79 SW8       30.09R WCI  28
NORTHERLY ISL    N/A     39  24  55 SW5         N/A
$$

LMZ740>746-270800-
SOUTHERN LAKE MICHIGAN

STATION/POSITION SKY/WX   TEMP    WIND        PRES    VSBY  WAVE
                          AIR SEA DIR/SP/G                  HT/PER
                          (F)     (DEG/KT/KT) (MB)    (MI)  (FT/S)
HARRISON CRIB              41     220/ 16/ 22   N/A
BURNHAM HARBOR             39     230/  3/  8   N/A
CALUMET HARBOR             38                 1018.3R
BURNS HARBOR               39     210/ 13/ 20 1019.6R
MICHIGAN CITY              38     190/ 17/ 18   N/A
$$

ILZ025>027-034>036-040-047-049-050-058-095>099-270800-
WEST-CENTRAL ILLINOIS

CITY           SKY/WX    TMP DP  RH WIND       PRES   REMARKS
QUINCY         PTCLDY    34  31  88 S5        30.08S WCI  30
GALESBURG*     PTCLDY    31  27  83 S3        30.08S
MACOMB*        CLEAR     33  29  85 S6        30.11R WCI  27
JACKSONVILLE*  CLOUDY    37  32  84 S5        30.10F WCI  33
PITTSFIELD*    MOCLDY    37  34  87 CALM      30.10S
$$

ILZ028>032-037-038-041>044-048-051>054-059>061-270800-
CENTRAL ILLINOIS

CITY           SKY/WX    TMP DP  RH WIND       PRES   REMARKS
PONTIAC        CLEAR     34  27  74 SW7       30.12R WCI  28
BLOOMINGTON    CLEAR     31  27  85 SW10      30.13R WCI  22
DECATUR        MOCLDY    34  28  79 CALM      30.14R
PEORIA         CLEAR     31  24  75 S5        30.11S WCI  26
LACON*         PTCLDY    35  28  76 SW7       30.10R WCI  29
LINCOLN*       PTCLDY    30  27  90 CALM      30.13S
SPRINGFIELD    CLOUDY    37  32  82 S5        30.12S WCI  33
TAYLORVILLE    CLOUDY    37  32  81 S6        30.12S WCI  33
$$

ILZ033-039-045-046-055>057-062-063-270800-
EAST-CENTRAL ILLINOIS

CITY           SKY/WX    TMP DP  RH WIND       PRES   REMARKS
CHAMPAIGN      CLOUDY    34  25  69 SW7       30.14R WCI  28
RANTOUL*       PTCLDY    33  26  75 SW5       30.14R WCI  28
MATTOON        CLOUDY    41  34  76 SW7       30.13F
PARIS*         CLOUDY    41  33  73 SW8       30.17R
$$

ILZ079-100>102-270800-
SOUTHWEST ILLINOIS

CITY           SKY/WX    TMP DP  RH WIND       PRES   REMARKS
ALTON          CLOUDY    39  35  84 SE3       30.10F
BELLEVILLE     CLOUDY    41  38  89 NE3       30.10S
CAHOKIA*       CLOUDY    41  36  82 NE5       30.10F
SPARTA*        CLOUDY    43  33  68 SE3       30.11F
$$

ILZ064>066-069>071-074>076-080>082-084>086-088>090-092>094-270800-
SOUTH-CENTRAL ILLINOIS

CITY           SKY/WX    TMP DP  RH WIND       PRES   REMARKS
CARBONDALE     LGT RAIN  45  30  55 SE8       30.14R
CAIRO*         DRIZZLE   46  39  76 SE3       30.14S
EFFINGHAM*     CLOUDY    41  35  80 CALM      30.16S
MARION         RAIN      45  28  53 SE3       30.15S
MT. VERNON     CLOUDY    41  36  82 CALM      30.14F
CENTRALIA*     CLOUDY    42  36  78 CALM      30.12F
SALEM*         CLOUDY    43  34  72 CALM      30.14R
METROPOLIS*    DRIZZLE   48  34  58 CALM      30.15S
$$

ILZ067-068-072-073-078-083-087-091-270800-
SOUTHEAST ILLINOIS

CITY           SKY/WX    TMP DP  RH WIND       PRES   REMARKS
LAWRENCEVILLE  CLOUDY    44  32  62 W3        30.17S
FLORA*         CLOUDY    43  36  75 E3        30.15S
FAIRFIELD*     CLOUDY    42  35  76 CALM      30.14S
HARRISBURG*    CLOUDY    43  37  79 CALM      30.16S
ROBINSON*      CLOUDY    41  35  79 CALM      30.17F
CARMI*         CLOUDY    42  35  76 N3        30.15S
$$

ABBREVIATIONS USED IN REMARKS
   TC - TEMPERATURE IN CELSIUS
  WCI - WIND CHILL INDEX
   HX - HEAT INDEX
  VSB - VISIBILITY
$$




USA.gov is the U.S. government's official web portal to all federal, state and local government web resources and services.